Flag for France Weather past 2 weeks in Paris, France

Now
52 °F

Overcast.


Feels Like: 47 °F
Forecast: 41 / 49 °F
Wind: 15 mph from Southwest

Location: Villacoublay

Current Time: Dec 19, 2014 at 9:59:51 AM

Latest Report: Dec 19, 2014 at 9:30 AM


Visibility: N/A

Pressure: 30.09 "Hg

Humidity: 82%

Dew point: 46 °F

Location of ParisLocation

Historic Weather in Paris — Graph

°F

Paris temperature yesterday

Maximum temperature yesterday: 55 °F (at 11:00 AM)
Minimum temperature yesterday: 50 °F (at 11:30 PM)
Average temperature yesterday: 53 °F

Past Weeks' High & Low Weather Summary

 TemperatureHumidityPressure
High55 °F (Dec 18, 11:00 AM)100% (Dec 7, 5:00 AM)30.45 "Hg (Dec 7, 5:00 AM)
Low30 °F (Dec 7, 6:30 AM)66% (Dec 16, 1:30 PM)29.59 "Hg (Dec 12, 1:30 PM)
Average42 °F90%30.05 "Hg
* Reported Dec 4 9:00 AM — Dec 19 9:00 AM, Paris, Weather by CustomWeather, © 2014

Note: Actual official high and low records may vary slightly from our data, if they occured in-between our weather recording intervals... More about our weather records

Advertising

Paris weather history for previous 24 hours

 ConditionsComfort  
Time TempWeatherWind HumidityBarometerVisibility
9:00 AM
Dec 19
52 °FOvercast.15 mph82%30.09 "HgN/A
8:30 AM52 °FOvercast.13 mph82%30.09 "HgN/A
8:00 AM52 °FOvercast.13 mph82%30.09 "HgN/A
7:30 AM52 °FOvercast.10 mph82%30.09 "HgN/A
7:00 AM52 °FOvercast.12 mph82%30.09 "HgN/A
6:30 AM52 °FOvercast.16 mph82%30.09 "HgN/A
6:00 AM52 °FOvercast.13 mph82%30.09 "HgN/A
5:30 AM52 °FOvercast.15 mph82%30.09 "HgN/A
5:00 AM52 °FOvercast.15 mph82%30.09 "HgN/A
4:30 AM52 °FMostly cloudy.14 mph82%30.09 "HgN/A
4:00 AM52 °FMostly cloudy.16 mph82%30.09 "HgN/A
3:30 AM50 °FMostly cloudy.13 mph94%30.12 "HgN/A
3:00 AM52 °FMostly cloudy.13 mph88%30.12 "HgN/A
2:30 AM52 °FMostly cloudy.10 mph82%30.12 "HgN/A
2:00 AM52 °FMostly cloudy.12 mph88%30.12 "HgN/A
1:30 AM52 °FOvercast.13 mph88%30.12 "HgN/A
1:00 AM52 °FMostly cloudy.12 mph88%30.15 "HgN/A
12:30 AM50 °FMostly cloudy.12 mph94%30.15 "HgN/A
12:00 AM50 °FOvercast.14 mph94%30.15 "HgN/A
11:30 PM
Dec 18
50 °FMostly cloudy.13 mph94%30.15 "HgN/A
11:00 PM52 °FMostly cloudy.14 mph82%30.15 "HgN/A
10:30 PM52 °FMostly cloudy.15 mph82%30.15 "HgN/A
10:00 PM52 °FMostly cloudy.14 mph82%30.15 "HgN/A
9:30 PM52 °FMostly cloudy.10 mph88%30.15 "HgN/A
9:00 PM52 °FMostly cloudy.9 mph88%30.15 "HgN/A
8:30 PM52 °FOvercast.13 mph82%30.15 "HgN/A
8:00 PM52 °FMostly cloudy.10 mph88%30.15 "HgN/A
7:30 PM52 °FMostly cloudy.9 mph88%30.15 "HgN/A
7:00 PM52 °FOvercast.10 mph88%30.15 "HgN/A
6:30 PM52 °FOvercast.13 mph88%30.12 "HgN/A
6:00 PM52 °FOvercast.12 mph88%30.12 "HgN/A
5:30 PM54 °FMostly cloudy.10 mph82%30.12 "HgN/A
5:00 PM52 °FPartly cloudy.10 mph88%30.12 "HgN/A
4:30 PM54 °FOvercast.10 mph82%30.12 "HgN/A
4:00 PM54 °FOvercast.12 mph82%30.12 "HgN/A
3:30 PM54 °FMostly cloudy.13 mph82%30.12 "HgN/A
3:00 PM54 °FMostly cloudy.15 mph88%30.09 "HgN/A
2:30 PM55 °FMostly cloudy.13 mph82%30.09 "HgN/A
2:00 PM55 °FMostly cloudy.16 mph82%30.09 "HgN/A
1:30 PM55 °FMostly cloudy.13 mph82%30.09 "HgN/A
1:00 PM55 °FMostly cloudy.14 mph88%30.09 "HgN/A
12:30 PM55 °FMostly cloudy.10 mph88%30.09 "HgN/A
12:00 PM55 °FMostly cloudy.17 mph88%30.09 "HgN/A
11:30 AM55 °FMostly cloudy.14 mph88%30.07 "HgN/A
11:00 AM55 °FMore clouds than sun.13 mph88%30.07 "HgN/A
10:30 AM54 °FMostly cloudy.13 mph94%30.07 "HgN/A
10:00 AM54 °FOvercast.13 mph94%30.07 "HgN/A
9:30 AM54 °FLow clouds.10 mph94%30.04 "HgN/A
9:00 AM54 °FLow clouds.13 mph94%30.04 "HgN/A
Weather by CustomWeather, © 2014

See weather overviewHow to use our weather pages